This is the latest recevied weather packets stored in our database for station/object N4MGC. If no packets are shown the sender has not sent any weather packets the latest 10 day(s).
| Time | Temp. | Humidity | Pressure | Rain* | Wind** | Luminosity | Snow |
|---|---|---|---|---|---|---|---|
| 1777758338 | 20.56° C | 36% | 1015.3 hPa | 0 mm | - | 371 W/m² | - |
| 1777758035 | 20.56° C | 38% | 1015.5 hPa | 0 mm | - | 428 W/m² | - |
| 1777757732 | 21.11° C | 36% | 1015.3 hPa | 0 mm | - | 128 W/m² | - |
| 1777757430 | 22.22° C | 36% | 1015.3 hPa | 0 mm | - | 482 W/m² | - |
| 1777757129 | 21.11° C | 36% | 1015.3 hPa | 0 mm | - | 471 W/m² | - |
| 1777756826 | 21.11° C | 35% | 1015.2 hPa | 0 mm | - | 472 W/m² | - |
| 1777756521 | 21.11° C | 39% | 1015.2 hPa | 0 mm | - | 114 W/m² | - |
| 1777756218 | 21.67° C | 38% | 1015.4 hPa | 0 mm | - | 517 W/m² | - |
| 1777755915 | 21.11° C | 37% | 1015.4 hPa | 0 mm | - | 521 W/m² | - |
| 1777755613 | 21.11° C | 36% | 1015.6 hPa | 0 mm | - | 150 W/m² | - |
| 1777755309 | 21.67° C | 40% | 1015.4 hPa | 0 mm | - | 180 W/m² | - |
| 1777755006 | 21.67° C | 36% | 1015.3 hPa | 0 mm | - | 268 W/m² | - |
| 1777754703 | 22.22° C | 38% | 1015.4 hPa | 0 mm | - | 520 W/m² | - |
| 1777754401 | 21.67° C | 37% | 1015.4 hPa | 0 mm | - | 588 W/m² | - |
| 1777754098 | 22.22° C | 38% | 1015.5 hPa | 0 mm | - | 622 W/m² | - |
| 1777753794 | 21.67° C | 37% | 1015.5 hPa | 0 mm | - | 588 W/m² | - |
| 1777753490 | 21.67° C | 36% | 1015.8 hPa | 0 mm | - | 614 W/m² | - |
| 1777753189 | 21.11° C | 37% | 1015.4 hPa | 0 mm | - | 587 W/m² | - |
| 1777752884 | 20.56° C | 36% | 1015.9 hPa | 0 mm | - | 648 W/m² | - |
| 1777752581 | 21.11° C | 36% | 1015.9 hPa | 0 mm | - | 609 W/m² | - |
| 1777752277 | 20.56° C | 38% | 1015.8 hPa | 0 mm | - | 637 W/m² | - |
| 1777751975 | 20° C | 39% | 1016 hPa | 0 mm | - | 154 W/m² | - |
| 1777751672 | 20.56° C | 37% | 1015.8 hPa | 0 mm | - | 154 W/m² | - |
| 1777751368 | 21.11° C | 38% | 1015.8 hPa | 0 mm | - | 423 W/m² | - |
| 1777751066 | 21.11° C | 38% | 1015.6 hPa | 0 mm | - | 635 W/m² | - |
* Rain latest hour (hover to see other rain measurements)
** Current wind speed in m/s (hover to see current wind gust speed)